STARLINK-11397, 62590

Orbit data source: Space-Track

STARLINK-11397, 62590 is a payload satellite owned by SpaceX/Seattle (US) in LEO that was launched on Mon, 13 Jan 2025 UTC via an FALCON 9 launch vehicle from the Air Force Eastern Test Range (AFETR). Payload-class satellites include a variety of spacecraft equipped with specific instruments for various scientific and technological missions. These include communications satellites like Starlink; space stations such as the ISS; scientific satellites like the Hubble; Earth observation satellites from companies like Planet Labs, Umbra, and HawkEye 360; GPS; miniature CubeSats for education and research; and military/defense satellites.

Loading next visibility...
Identifier
62590, 2025-008D
Orbit
LEO
Last TLE update
8 hours ago
Origin
Manufacturer
SpaceX/Seattle
Mission
Operational Commercial Communications
Bus & Motor
STARLINK V2M, Unknown motor
Mass
730 kg wet, ~700 kg dry
Launch date (UTC)
2025-01-13 (6 months ago)
Launch vehicle
FALCON 9
Launch site
Air Force Eastern Test Range (AFETR)
Object type
Payload
Rocket body
Debris
Shape & HBR
Box + 2 Pan, 29 m
Radar Cross Section
36.964 m², Large (>1 m²)

Expand to show TLE details & history

TLE from 8 hours ago
0 STARLINK-11397
1 62590U 25008D   25182.05439704  .00187372  00000-0  14248-2 0  9996
2 62590  42.9994 202.4831 0001497 227.8835 132.1906 15.70944375 27643
Epoch: 2025-07-01T01:18Z
TLE epoch observation values (Epoch: 2025-07-01T01:18:19.904Z)
Latitude
0.00002°
Longitude
-96.45517°
Altitude
356.645 km
Speed
7.697 km/s
True Right ascension
13h 29m 55s
True Declination
0° 00' 00"
Sunlit
Object was in daylight at epoch
Visualization orbit readout
Latitude
-16.76358°
Longitude
100.1457°
Altitude
358.341 km
Speed
7.696 km/s
Apparent Right ascension
05h 22m 40s
Apparent Declination
-39° 47' 53"
Sunlit
Object is in daylight
Visualization observer readout
Local Sidereal Time
21:26:29
Azimuth
110.532° ESE
Elevation
-44.175°
Doppler factor
1
Orbital elements
Apogee altitude
359.187 km
Perigee altitude
357.17 km
Semi-major axis
6,736.316 km
Eccentricity
0.00015
Inclination
42.9994°
RAAN
202.4831°
Arg. of periapsis
227.8835°
True anomaly
Unknown
Mean anomaly
132.1906°
Eccentric anomaly
Unknown
Mean motion
3.92563 °/min
Orbital period
91.7 mins
BSTAR
0.0014248
Loading maneuver chart data...
Loading SW <> Apogee altitude chart data...
Loading historical data...
Loading historical data...
Loading historical data...
Loading historical data...
Loading historical data...
Loading historical data...
Loading historical data...

STARLINK-11397 Visibility forecast

Observer location: undefined°, undefined°

Span
Click to sort rows by Start time (UTC) header in descending order
Start Az.
Max El. time (UTC)
Max El. Az.
Max El.
End time (UTC)
End Az.
4 mins2025-07-02 05:01:08.398Z221.28° SW2025-07-02 05:02:08.398Z178.827° S38.239°2025-07-02 05:05:08.398Z78.054° E
4 mins2025-07-02 06:37:08.398Z290.468° WNW2025-07-02 06:38:08.398Z326.486° NNW34.968°2025-07-02 06:41:08.398Z68.212° E
4 mins2025-07-02 08:13:08.398Z299.387° NW2025-07-02 08:15:08.398Z40.203° NE37.233°2025-07-02 08:17:08.398Z86.768° E
|